This is the latest recevied weather packets stored in our database for station/object CE1RLP-34. If no packets are shown the sender has not sent any weather packets the latest 10 day(s).
| Time | Temp. | Humidity | Pressure | Rain* | Wind** | Luminosity | Snow |
|---|---|---|---|---|---|---|---|
| 1778075413 | 16.67° C | 17% | 1084.5 hPa | - | - | - | - |
| 1778074513 | 15° C | 18% | 1084 hPa | - | - | - | - |
| 1778073610 | 13.89° C | 21% | 1084.3 hPa | - | - | - | - |
| 1778072711 | 12.78° C | 21% | 1084.2 hPa | - | - | - | - |
| 1778071808 | 11.67° C | 22% | 1084.1 hPa | - | - | - | - |
| 1778070908 | 11.11° C | 23% | 1084 hPa | - | - | - | - |
| 1778070006 | 10.56° C | 23% | 1083.8 hPa | - | - | - | - |
| 1778068233 | 10° C | 24% | 1083.6 hPa | - | - | - | - |
| 1778067333 | 10° C | 23% | 1083.5 hPa | - | - | - | - |
| 1778066430 | 10° C | 23% | 1083.4 hPa | - | - | - | - |
| 1778064627 | 10° C | 22% | 1083.2 hPa | - | - | - | - |
| 1778063727 | 10° C | 23% | 1083 hPa | - | - | - | - |
| 1778062825 | 10° C | 23% | 1083 hPa | - | - | - | - |
| 1778061925 | 10° C | 24% | 1082.9 hPa | - | - | - | - |
| 1778061022 | 10° C | 24% | 1082.9 hPa | - | - | - | - |
| 1778060122 | 10° C | 23% | 1082.8 hPa | - | - | - | - |
| 1778059220 | 10° C | 24% | 1082.8 hPa | - | - | - | - |
| 1778058320 | 10° C | 24% | 1082.7 hPa | - | - | - | - |
| 1778057418 | 10° C | 24% | 1082.8 hPa | - | - | - | - |
| 1778056517 | 10° C | 25% | 1082.9 hPa | - | - | - | - |
| 1778055615 | 10° C | 25% | 1082.9 hPa | - | - | - | - |
| 1778054715 | 10.56° C | 26% | 1083 hPa | - | - | - | - |
| 1778053813 | 10.56° C | 24% | 1083 hPa | - | - | - | - |
| 1778052913 | 10.56° C | 24% | 1082.9 hPa | - | - | - | - |
| 1778052010 | 11.11° C | 25% | 1082.9 hPa | - | - | - | - |
* Rain since midnight (hover to see other rain measurements)
** Current wind speed in m/s (hover to see current wind gust speed)